Data supplied by UK-AIR on 15/3/2018
All Data GMT hour ending 
Status: R =Ratified P=Provisional,P*=As supplied
,,Barnsley Gawber,,,,,,,,,,,,,,,,,,,,,,,
Date,time,"Nitric oxide",status,unit,"Nitrogen dioxide",status,unit,"Nitrogen oxides as nitrogen dioxide",status,unit,"Ozone",status,unit,"Sulphur dioxide",status,unit
 
01-01-2017,01:00,2.93240,R,ugm-3,5.14654,R,ugm-3,9.64283,R,ugm-3,60.66928,R,ugm-3,2.73363,R,ugm-3
01-01-2017,02:00,0.65608,R,ugm-3,4.08191,R,ugm-3,5.08789,R,ugm-3,61.26799,R,ugm-3,1.87860,R,ugm-3
01-01-2017,03:00,0.46275,R,ugm-3,3.23930,R,ugm-3,3.94883,R,ugm-3,58.62369,R,ugm-3,1.66506,R,ugm-3
01-01-2017,04:00,0.43375,R,ugm-3,4.65933,R,ugm-3,5.32440,R,ugm-3,51.13981,R,ugm-3,1.66572,R,ugm-3
01-01-2017,05:00,0.20269,R,ugm-3,5.59024,R,ugm-3,5.90102,R,ugm-3,55.97939,R,ugm-3,1.79345,R,ugm-3
01-01-2017,06:00,0.11600,R,ugm-3,3.94883,R,ugm-3,4.12670,R,ugm-3,63.11401,R,ugm-3,1.60186,R,ugm-3
01-01-2017,07:00,0.14500,R,ugm-3,3.94836,R,ugm-3,4.17068,R,ugm-3,66.20735,R,ugm-3,1.40961,R,ugm-3
01-01-2017,08:00,0.11600,R,ugm-3,3.23930,R,ugm-3,3.41716,R,ugm-3,70.09896,R,ugm-3,1.34575,R,ugm-3
01-01-2017,09:00,0.11600,R,ugm-3,4.03729,R,ugm-3,4.21515,R,ugm-3,68.70197,R,ugm-3,1.08964,R,ugm-3
01-01-2017,10:00,0.11600,R,ugm-3,3.77097,R,ugm-3,3.94883,R,ugm-3,70.54800,R,ugm-3,0.89672,R,ugm-3
01-01-2017,11:00,0.26069,R,ugm-3,5.72316,R,ugm-3,6.12287,R,ugm-3,66.20735,R,ugm-3,1.08897,R,ugm-3
01-01-2017,12:00,1.07081,R,ugm-3,5.72363,R,ugm-3,7.36552,R,ugm-3,65.05982,R,ugm-3,1.15350,R,ugm-3
01-01-2017,13:00,0.43375,R,ugm-3,6.43413,R,ugm-3,7.09920,R,ugm-3,60.56950,R,ugm-3,1.15350,R,ugm-3
01-01-2017,14:00,0.46275,R,ugm-3,6.74491,R,ugm-3,7.45445,R,ugm-3,59.87100,R,ugm-3,1.15350,R,ugm-3
01-01-2017,15:00,0.49175,R,ugm-3,8.69709,R,ugm-3,9.45110,R,ugm-3,56.27874,R,ugm-3,1.15284,R,ugm-3
01-01-2017,16:00,0.52075,R,ugm-3,10.24957,R,ugm-3,11.04803,R,ugm-3,53.58455,R,ugm-3,1.21736,R,ugm-3
01-01-2017,17:00,0.52044,R,ugm-3,14.28781,R,ugm-3,15.08580,R,ugm-3,48.44562,R,ugm-3,1.21803,R,ugm-3
01-01-2017,18:00,0.34675,R,ugm-3,12.24669,R,ugm-3,12.77837,R,ugm-3,49.84261,R,ugm-3,0.89672,R,ugm-3
01-01-2017,19:00,0.34706,R,ugm-3,11.35882,R,ugm-3,11.89097,R,ugm-3,52.23745,R,ugm-3,1.53734,R,ugm-3
01-01-2017,20:00,0.28937,R,ugm-3,12.68992,R,ugm-3,13.13362,R,ugm-3,53.28519,R,ugm-3,0.76834,R,ugm-3
01-01-2017,21:00,0.28937,R,ugm-3,14.06548,R,ugm-3,14.50918,R,ugm-3,51.63874,R,ugm-3,0.70514,R,ugm-3
01-01-2017,22:00,0.26069,R,ugm-3,14.50918,R,ugm-3,14.90889,R,ugm-3,50.74067,R,ugm-3,0.76900,R,ugm-3
01-01-2017,23:00,0.17400,R,ugm-3,8.42934,R,ugm-3,8.69614,R,ugm-3,56.17896,R,ugm-3,0.83220,R,ugm-3
01-01-2017,24:00,0.14500,R,ugm-3,6.07793,R,ugm-3,6.30025,R,ugm-3,59.17251,R,ugm-3,0.51289,R,ugm-3
02-01-2017,01:00,0.15467,R,ugm-3,5.67885,R,ugm-3,5.91600,R,ugm-3,60.46971,R,ugm-3,1.11048,R,ugm-3
02-01-2017,02:00,0.23200,R,ugm-3,8.63621,R,ugm-3,8.99194,R,ugm-3,51.08992,R,ugm-3,1.11048,R,ugm-3
02-01-2017,03:00,0.31837,R,ugm-3,7.40998,R,ugm-3,7.89815,R,ugm-3,46.69938,R,ugm-3,1.02511,R,ugm-3
02-01-2017,04:00,0.20300,R,ugm-3,4.52498,R,ugm-3,4.83623,R,ugm-3,53.18541,R,ugm-3,0.89739,R,ugm-3
02-01-2017,05:00,0.11600,R,ugm-3,2.92804,R,ugm-3,3.10590,R,ugm-3,59.42197,R,ugm-3,0.89672,R,ugm-3
02-01-2017,06:00,0.31837,R,ugm-3,6.07840,R,ugm-3,6.56657,R,ugm-3,50.99014,R,ugm-3,0.76834,R,ugm-3
02-01-2017,07:00,0.63675,R,ugm-3,8.78507,R,ugm-3,9.76140,R,ugm-3,47.29809,R,ugm-3,1.02511,R,ugm-3
02-01-2017,08:00,1.04150,R,ugm-3,13.48934,R,ugm-3,15.08628,R,ugm-3,40.66239,R,ugm-3,0.64128,R,ugm-3
02-01-2017,09:00,0.86843,R,ugm-3,13.39945,R,ugm-3,14.73103,R,ugm-3,40.31314,R,ugm-3,0.83286,R,ugm-3
02-01-2017,10:00,1.70724,R,ugm-3,14.68657,R,ugm-3,17.30430,R,ugm-3,39.66454,R,ugm-3,0.83286,R,ugm-3
02-01-2017,11:00,2.31530,R,ugm-3,13.35499,R,ugm-3,16.90507,R,ugm-3,46.79917,R,ugm-3,1.21803,R,ugm-3
02-01-2017,12:00,2.80705,R,ugm-3,13.53285,R,ugm-3,17.83693,R,ugm-3,48.44562,R,ugm-3,1.15284,R,ugm-3
02-01-2017,13:00,2.51768,R,ugm-3,12.42312,R,ugm-3,16.28350,R,ugm-3,52.43702,R,ugm-3,1.28189,R,ugm-3
02-01-2017,14:00,2.14130,R,ugm-3,12.51253,R,ugm-3,15.79582,R,ugm-3,51.53895,R,ugm-3,1.47347,R,ugm-3
02-01-2017,15:00,2.08330,R,ugm-3,17.17186,R,ugm-3,20.36621,R,ugm-3,47.09852,R,ugm-3,1.08964,R,ugm-3
02-01-2017,16:00,1.99662,R,ugm-3,20.58758,R,ugm-3,23.64902,R,ugm-3,43.10712,R,ugm-3,1.66572,R,ugm-3
02-01-2017,17:00,4.74567,R,ugm-3,30.12761,R,ugm-3,37.40420,R,ugm-3,34.82497,R,ugm-3,1.66572,R,ugm-3
02-01-2017,18:00,5.38241,R,ugm-3,31.50270,R,ugm-3,39.75562,R,ugm-3,30.13507,R,ugm-3,1.40961,R,ugm-3
02-01-2017,19:00,3.21180,R,ugm-3,27.24356,R,ugm-3,32.16825,R,ugm-3,32.62970,R,ugm-3,1.34575,R,ugm-3
02-01-2017,20:00,1.64924,R,ugm-3,19.47833,R,ugm-3,22.00714,R,ugm-3,40.41293,R,ugm-3,1.53734,R,ugm-3
02-01-2017,21:00,3.06742,R,ugm-3,20.18835,R,ugm-3,24.89167,R,ugm-3,38.26755,R,ugm-3,1.08964,R,ugm-3
02-01-2017,22:00,1.15749,R,ugm-3,14.64162,R,ugm-3,16.41642,R,ugm-3,43.25680,R,ugm-3,0.76900,R,ugm-3
02-01-2017,23:00,1.15749,R,ugm-3,11.49173,R,ugm-3,13.26653,R,ugm-3,47.84691,R,ugm-3,0.70514,R,ugm-3
02-01-2017,24:00,0.46275,R,ugm-3,6.70044,R,ugm-3,7.40998,R,ugm-3,52.33723,R,ugm-3,0.76834,R,ugm-3
03-01-2017,01:00,0.42408,R,ugm-3,8.10581,R,ugm-3,8.75606,R,ugm-3,50.29164,R,ugm-3,0.94018,R,ugm-3
03-01-2017,02:00,0.54008,R,ugm-3,10.35300,R,ugm-3,11.18111,R,ugm-3,48.49551,R,ugm-3,1.02533,R,ugm-3
03-01-2017,03:00,0.54975,R,ugm-3,10.78172,R,ugm-3,11.62465,R,ugm-3,51.13981,R,ugm-3,0.83286,R,ugm-3
03-01-2017,04:00,0.52075,R,ugm-3,9.53955,R,ugm-3,10.33802,R,ugm-3,53.93379,R,ugm-3,1.15350,R,ugm-3
03-01-2017,05:00,0.52075,R,ugm-3,7.49891,R,ugm-3,8.29738,R,ugm-3,56.97724,R,ugm-3,0.89739,R,ugm-3
03-01-2017,06:00,0.57875,R,ugm-3,6.07840,R,ugm-3,6.96580,R,ugm-3,62.26584,R,ugm-3,0.64128,R,ugm-3
03-01-2017,07:00,1.15749,R,ugm-3,9.85033,R,ugm-3,11.62513,R,ugm-3,60.12046,R,ugm-3,0.76900,R,ugm-3
03-01-2017,08:00,1.15749,R,ugm-3,13.00022,R,ugm-3,14.77502,R,ugm-3,56.92734,R,ugm-3,1.02578,R,ugm-3
03-01-2017,09:00,1.44687,R,ugm-3,13.35547,R,ugm-3,15.57397,R,ugm-3,54.93164,R,ugm-3,0.76900,R,ugm-3
03-01-2017,10:00,1.21549,R,ugm-3,11.80252,R,ugm-3,13.66625,R,ugm-3,56.82756,R,ugm-3,1.02578,R,ugm-3
03-01-2017,11:00,1.33118,R,ugm-3,11.49221,R,ugm-3,13.53333,R,ugm-3,56.62799,R,ugm-3,0.96125,R,ugm-3
03-01-2017,12:00,2.69105,R,ugm-3,12.29116,R,ugm-3,16.41738,R,ugm-3,55.13121,R,ugm-3,1.02578,R,ugm-3
03-01-2017,13:00,4.42729,R,ugm-3,13.97703,R,ugm-3,20.76545,R,ugm-3,53.28519,R,ugm-3,1.28189,R,ugm-3
03-01-2017,14:00,1.96793,R,ugm-3,11.35834,R,ugm-3,14.37578,R,ugm-3,57.87530,R,ugm-3,1.40961,R,ugm-3
03-01-2017,15:00,1.18649,R,ugm-3,9.62800,R,ugm-3,11.44727,R,ugm-3,58.62369,R,ugm-3,1.53800,R,ugm-3
03-01-2017,16:00,2.25668,R,ugm-3,11.58162,R,ugm-3,15.04181,R,ugm-3,56.22885,R,ugm-3,1.21736,R,ugm-3
03-01-2017,17:00,1.21549,R,ugm-3,10.29403,R,ugm-3,12.15776,R,ugm-3,58.52390,R,ugm-3,1.28189,R,ugm-3
03-01-2017,18:00,1.24449,R,ugm-3,10.60433,R,ugm-3,12.51253,R,ugm-3,56.57810,R,ugm-3,1.47347,R,ugm-3
03-01-2017,19:00,0.69475,R,ugm-3,9.09489,R,ugm-3,10.16016,R,ugm-3,58.62369,R,ugm-3,1.21736,R,ugm-3
03-01-2017,20:00,0.60775,R,ugm-3,7.18813,R,ugm-3,8.12000,R,ugm-3,60.02068,R,ugm-3,1.21736,R,ugm-3
03-01-2017,21:00,0.40475,R,ugm-3,5.90150,R,ugm-3,6.52210,R,ugm-3,60.76907,R,ugm-3,1.28122,R,ugm-3
03-01-2017,22:00,0.40475,R,ugm-3,5.54673,R,ugm-3,6.16733,R,ugm-3,59.57165,R,ugm-3,1.40961,R,ugm-3
03-01-2017,23:00,0.43375,R,ugm-3,5.23643,R,ugm-3,5.90150,R,ugm-3,59.62154,R,ugm-3,1.28189,R,ugm-3
03-01-2017,24:00,0.37669,R,ugm-3,4.12574,R,ugm-3,4.70332,R,ugm-3,61.01853,R,ugm-3,1.15350,R,ugm-3
04-01-2017,01:00,0.23075,R,ugm-3,3.78739,R,ugm-3,4.14120,R,ugm-3,60.93537,R,ugm-3,1.45285,R,ugm-3
04-01-2017,02:00,0.26942,R,ugm-3,3.84667,R,ugm-3,4.25977,R,ugm-3,59.80448,R,ugm-3,1.36770,R,ugm-3
04-01-2017,03:00,0.28875,R,ugm-3,3.32918,R,ugm-3,3.77193,R,ugm-3,60.22025,R,ugm-3,1.53933,R,ugm-3
04-01-2017,04:00,0.28875,R,ugm-3,3.06239,R,ugm-3,3.50513,R,ugm-3,60.12046,R,ugm-3,1.02644,R,ugm-3
04-01-2017,05:00,0.31775,R,ugm-3,3.50609,R,ugm-3,3.99330,R,ugm-3,59.72132,R,ugm-3,1.34708,R,ugm-3
04-01-2017,06:00,0.31775,R,ugm-3,5.10398,R,ugm-3,5.59119,R,ugm-3,61.91659,R,ugm-3,1.28255,R,ugm-3
04-01-2017,07:00,0.54944,R,ugm-3,11.93591,R,ugm-3,12.77837,R,ugm-3,56.02928,R,ugm-3,1.28255,R,ugm-3
04-01-2017,08:00,1.96575,R,ugm-3,26.18117,R,ugm-3,29.19527,R,ugm-3,43.80562,R,ugm-3,1.28255,R,ugm-3
04-01-2017,09:00,3.55512,R,ugm-3,29.55673,R,ugm-3,35.00783,R,ugm-3,40.61250,R,ugm-3,1.28255,R,ugm-3
04-01-2017,10:00,1.01156,R,ugm-3,16.81853,R,ugm-3,18.36956,R,ugm-3,51.83831,R,ugm-3,1.47480,R,ugm-3
04-01-2017,11:00,1.56068,R,ugm-3,21.61125,R,ugm-3,24.00427,R,ugm-3,47.29809,R,ugm-3,1.34642,R,ugm-3
04-01-2017,12:00,1.90775,R,ugm-3,13.18143,R,ugm-3,16.10660,R,ugm-3,56.72777,R,ugm-3,1.21803,R,ugm-3
04-01-2017,13:00,1.79206,R,ugm-3,9.98660,R,ugm-3,12.73438,R,ugm-3,61.36778,R,ugm-3,1.34708,R,ugm-3
04-01-2017,14:00,1.76337,R,ugm-3,12.02676,R,ugm-3,14.73055,R,ugm-3,58.97294,R,ugm-3,1.28255,R,ugm-3
04-01-2017,15:00,1.30093,R,ugm-3,13.17999,R,ugm-3,15.17473,R,ugm-3,57.92519,R,ugm-3,1.28255,R,ugm-3
04-01-2017,16:00,1.56131,R,ugm-3,19.52423,R,ugm-3,21.91821,R,ugm-3,52.28734,R,ugm-3,1.34642,R,ugm-3
04-01-2017,17:00,1.06925,R,ugm-3,26.22468,R,ugm-3,27.86417,R,ugm-3,46.05078,R,ugm-3,1.15417,R,ugm-3
04-01-2017,18:00,1.35862,R,ugm-3,32.43648,R,ugm-3,34.51967,R,ugm-3,41.36088,R,ugm-3,1.41028,R,ugm-3
04-01-2017,19:00,1.44562,R,ugm-3,32.43648,R,ugm-3,34.65307,R,ugm-3,41.16131,R,ugm-3,1.41094,R,ugm-3
04-01-2017,20:00,1.56100,R,ugm-3,40.29016,R,ugm-3,42.68365,R,ugm-3,31.68174,R,ugm-3,1.60319,R,ugm-3
04-01-2017,21:00,3.38205,R,ugm-3,31.64183,R,ugm-3,36.82758,R,ugm-3,38.56690,R,ugm-3,1.79478,R,ugm-3
04-01-2017,22:00,0.52044,R,ugm-3,17.48216,R,ugm-3,18.28015,R,ugm-3,52.78627,R,ugm-3,1.47414,R,ugm-3
04-01-2017,23:00,0.46275,R,ugm-3,16.10660,R,ugm-3,16.81613,R,ugm-3,53.03573,R,ugm-3,1.02578,R,ugm-3
04-01-2017,24:00,0.28875,R,ugm-3,13.09058,R,ugm-3,13.53333,R,ugm-3,54.28304,R,ugm-3,1.15417,R,ugm-3
05-01-2017,01:00,0.34675,R,ugm-3,13.01584,R,ugm-3,13.54751,R,ugm-3,52.22082,R,ugm-3,0.76989,R,ugm-3
05-01-2017,02:00,0.61700,R,ugm-3,11.18175,R,ugm-3,12.12780,R,ugm-3,50.69078,R,ugm-3,1.36770,R,ugm-3
05-01-2017,03:00,0.52044,R,ugm-3,8.12048,R,ugm-3,8.91847,R,ugm-3,53.43487,R,ugm-3,0.76967,R,ugm-3
05-01-2017,04:00,0.49175,R,ugm-3,7.72028,R,ugm-3,8.47429,R,ugm-3,53.88390,R,ugm-3,0.44836,R,ugm-3
05-01-2017,05:00,4.94274,R,ugm-3,18.77740,R,ugm-3,26.35616,R,ugm-3,45.95099,R,ugm-3,0.70514,R,ugm-3
05-01-2017,06:00,1.12756,R,ugm-3,14.24430,R,ugm-3,15.97320,R,ugm-3,50.14196,R,ugm-3,0.32064,R,ugm-3
05-01-2017,07:00,16.53421,R,ugm-3,46.79314,R,ugm-3,72.14524,R,ugm-3,24.94625,R,ugm-3,0.89739,R,ugm-3
05-01-2017,08:00,29.48430,R,ugm-3,64.87343,R,ugm-3,110.08207,R,ugm-3,12.97205,R,ugm-3,0.96192,R,ugm-3
05-01-2017,09:00,49.71863,R,ugm-3,73.38167,R,ugm-3,149.61583,R,ugm-3,10.37764,R,ugm-3,1.85997,R,ugm-3
05-01-2017,10:00,88.74197,R,ugm-3,80.72280,R,ugm-3,216.79192,R,ugm-3,4.88947,R,ugm-3,2.37286,R,ugm-3
05-01-2017,11:00,87.26766,R,ugm-3,72.51196,R,ugm-3,206.32050,R,ugm-3,7.53377,R,ugm-3,3.59155,R,ugm-3
05-01-2017,12:00,7.57329,R,ugm-3,21.22110,R,ugm-3,32.83332,R,ugm-3,48.69508,R,ugm-3,1.79544,R,ugm-3
05-01-2017,13:00,9.45235,R,ugm-3,32.84910,R,ugm-3,47.34250,R,ugm-3,37.02024,R,ugm-3,3.20639,R,ugm-3
05-01-2017,14:00,14.42440,R,ugm-3,49.49598,R,ugm-3,71.61308,R,ugm-3,25.09593,R,ugm-3,5.19408,R,ugm-3
05-01-2017,15:00,13.47053,R,ugm-3,53.84261,R,ugm-3,74.49713,R,ugm-3,26.34324,R,ugm-3,6.86180,R,ugm-3
05-01-2017,16:00,40.23759,R,ugm-3,79.39983,R,ugm-3,141.09660,R,ugm-3,9.77893,R,ugm-3,5.89988,R,ugm-3
05-01-2017,17:00,93.88708,R,ugm-3,97.76987,R,ugm-3,241.72805,R,ugm-3,3.89162,R,ugm-3,8.91335,R,ugm-3
05-01-2017,18:00,110.10385,R,ugm-3,97.04168,R,ugm-3,265.86523,R,ugm-3,3.24301,R,ugm-3,10.96623,R,ugm-3
05-01-2017,19:00,81.31336,R,ugm-3,83.77133,R,ugm-3,208.45007,R,ugm-3,3.59226,R,ugm-3,9.36238,R,ugm-3
05-01-2017,20:00,20.00295,R,ugm-3,58.02477,R,ugm-3,88.69553,R,ugm-3,9.67915,R,ugm-3,12.44037,R,ugm-3
05-01-2017,21:00,49.16919,R,ugm-3,68.94419,R,ugm-3,144.33590,R,ugm-3,2.24516,R,ugm-3,6.73407,R,ugm-3
05-01-2017,22:00,21.50657,R,ugm-3,59.35778,R,ugm-3,92.33407,R,ugm-3,2.84387,R,ugm-3,5.06635,R,ugm-3
05-01-2017,23:00,16.18746,R,ugm-3,61.87846,R,ugm-3,86.69888,R,ugm-3,3.64215,R,ugm-3,3.59022,R,ugm-3
05-01-2017,24:00,5.28980,R,ugm-3,46.37526,R,ugm-3,54.48617,R,ugm-3,17.46238,R,ugm-3,3.07866,R,ugm-3
06-01-2017,01:00,1.31008,R,ugm-3,21.18157,R,ugm-3,23.19034,R,ugm-3,43.17364,R,ugm-3,3.24896,R,ugm-3
06-01-2017,02:00,0.84816,R,ugm-3,15.08644,R,ugm-3,16.38694,R,ugm-3,51.15644,R,ugm-3,2.90748,R,ugm-3
06-01-2017,03:00,0.80950,R,ugm-3,15.30908,R,ugm-3,16.55030,R,ugm-3,48.09637,R,ugm-3,1.73225,R,ugm-3
06-01-2017,04:00,1.01187,R,ugm-3,17.97128,R,ugm-3,19.52280,R,ugm-3,42.80777,R,ugm-3,1.85930,R,ugm-3
06-01-2017,05:00,0.89619,R,ugm-3,22.05304,R,ugm-3,23.42717,R,ugm-3,36.12217,R,ugm-3,2.43672,R,ugm-3
06-01-2017,06:00,1.35862,R,ugm-3,24.09511,R,ugm-3,26.17830,R,ugm-3,33.92690,R,ugm-3,1.85997,R,ugm-3
06-01-2017,07:00,6.09899,R,ugm-3,27.96362,R,ugm-3,37.31527,R,ugm-3,31.78152,R,ugm-3,2.11675,R,ugm-3
06-01-2017,08:00,6.85080,R,ugm-3,36.70566,R,ugm-3,47.21006,R,ugm-3,22.95055,R,ugm-3,2.30900,R,ugm-3
06-01-2017,09:00,13.44153,R,ugm-3,44.79075,R,ugm-3,65.40081,R,ugm-3,17.66195,R,ugm-3,2.05288,R,ugm-3
06-01-2017,10:00,18.15289,R,ugm-3,49.23683,R,ugm-3,77.07088,R,ugm-3,15.56646,R,ugm-3,2.24447,R,ugm-3
06-01-2017,11:00,6.67742,R,ugm-3,30.80368,R,ugm-3,41.04225,R,ugm-3,28.68819,R,ugm-3,2.11608,R,ugm-3
06-01-2017,12:00,9.33666,R,ugm-3,38.48428,R,ugm-3,52.80030,R,ugm-3,21.90281,R,ugm-3,1.60319,R,ugm-3
06-01-2017,13:00,7.83367,R,ugm-3,32.80224,R,ugm-3,44.81370,R,ugm-3,26.04389,R,ugm-3,1.41094,R,ugm-3
06-01-2017,14:00,7.13986,R,ugm-3,31.73603,R,ugm-3,42.68365,R,ugm-3,26.89206,R,ugm-3,0.89739,R,ugm-3
06-01-2017,15:00,8.26710,R,ugm-3,33.42428,R,ugm-3,46.10033,R,ugm-3,25.44518,R,ugm-3,1.02644,R,ugm-3
06-01-2017,16:00,10.00148,R,ugm-3,41.72453,R,ugm-3,57.05992,R,ugm-3,19.35829,R,ugm-3,2.30833,R,ugm-3
06-01-2017,17:00,10.31954,R,ugm-3,44.74198,R,ugm-3,60.56505,R,ugm-3,19.30840,R,ugm-3,3.39864,R,ugm-3
06-01-2017,18:00,9.19198,R,ugm-3,33.11542,R,ugm-3,47.20958,R,ugm-3,25.14582,R,ugm-3,3.78314,R,ugm-3
06-01-2017,19:00,9.01891,R,ugm-3,35.91006,R,ugm-3,49.73887,R,ugm-3,22.45163,R,ugm-3,2.94961,R,ugm-3
06-01-2017,20:00,3.87318,R,ugm-3,22.28015,R,ugm-3,28.21894,R,ugm-3,30.33464,R,ugm-3,2.18061,R,ugm-3
06-01-2017,21:00,2.13881,R,ugm-3,13.53668,R,ugm-3,16.81613,R,ugm-3,38.16776,R,ugm-3,1.98703,R,ugm-3
06-01-2017,22:00,1.35831,R,ugm-3,14.02341,R,ugm-3,16.10612,R,ugm-3,34.87486,R,ugm-3,1.60253,R,ugm-3
06-01-2017,23:00,13.81759,R,ugm-3,37.73649,R,ugm-3,58.92317,R,ugm-3,13.37119,R,ugm-3,1.85997,R,ugm-3
06-01-2017,24:00,10.37722,R,ugm-3,36.08983,R,ugm-3,52.00135,R,ugm-3,8.43183,R,ugm-3,2.69350,R,ugm-3
07-01-2017,01:00,2.15824,R,ugm-3,15.68122,R,ugm-3,18.99049,R,ugm-3,28.07285,R,ugm-3,2.22363,R,ugm-3
07-01-2017,02:00,1.15625,R,ugm-3,12.36623,R,ugm-3,14.13911,R,ugm-3,29.46984,R,ugm-3,1.62492,R,ugm-3
07-01-2017,03:00,0.98287,R,ugm-3,12.33658,R,ugm-3,13.84363,R,ugm-3,28.98754,R,ugm-3,1.66705,R,ugm-3
07-01-2017,04:00,1.01187,R,ugm-3,10.78315,R,ugm-3,12.33467,R,ugm-3,31.63185,R,ugm-3,1.53933,R,ugm-3
07-01-2017,05:00,1.21394,R,ugm-3,9.71933,R,ugm-3,11.58067,R,ugm-3,36.72088,R,ugm-3,1.60319,R,ugm-3
07-01-2017,06:00,1.12725,R,ugm-3,8.96437,R,ugm-3,10.69279,R,ugm-3,43.15701,R,ugm-3,1.15483,R,ugm-3
07-01-2017,07:00,1.32993,R,ugm-3,11.53811,R,ugm-3,13.57732,R,ugm-3,40.21336,R,ugm-3,1.21803,R,ugm-3
07-01-2017,08:00,1.32962,R,ugm-3,14.20079,R,ugm-3,16.23952,R,ugm-3,37.91830,R,ugm-3,0.96258,R,ugm-3
07-01-2017,09:00,6.64842,R,ugm-3,24.28110,R,ugm-3,34.47520,R,ugm-3,28.88776,R,ugm-3,1.34642,R,ugm-3
07-01-2017,10:00,4.62530,R,ugm-3,23.70113,R,ugm-3,30.79316,R,ugm-3,30.53421,R,ugm-3,1.21803,R,ugm-3
07-01-2017,11:00,4.04687,R,ugm-3,28.66981,R,ugm-3,34.87492,R,ugm-3,27.24131,R,ugm-3,1.21869,R,ugm-3
07-01-2017,12:00,4.07555,R,ugm-3,25.38605,R,ugm-3,31.63514,R,ugm-3,28.98754,R,ugm-3,1.28255,R,ugm-3
07-01-2017,13:00,3.78680,R,ugm-3,29.42333,R,ugm-3,35.22968,R,ugm-3,28.38883,R,ugm-3,1.60253,R,ugm-3
07-01-2017,14:00,2.71724,R,ugm-3,28.13431,R,ugm-3,32.30069,R,ugm-3,37.12002,R,ugm-3,1.79478,R,ugm-3
07-01-2017,15:00,3.38205,R,ugm-3,34.12617,R,ugm-3,39.31192,R,ugm-3,29.78582,R,ugm-3,1.92450,R,ugm-3
07-01-2017,16:00,4.85605,R,ugm-3,40.47376,R,ugm-3,47.91960,R,ugm-3,18.06109,R,ugm-3,2.11608,R,ugm-3
07-01-2017,17:00,18.52895,R,ugm-3,52.29827,R,ugm-3,80.70893,R,ugm-3,1.99570,R,ugm-3,1.85930,R,ugm-3
07-01-2017,18:00,18.93339,R,ugm-3,52.87632,R,ugm-3,81.90712,R,ugm-3,6.33635,R,ugm-3,1.66772,R,ugm-3
07-01-2017,19:00,8.32479,R,ugm-3,38.21701,R,ugm-3,50.98151,R,ugm-3,18.11098,R,ugm-3,1.53933,R,ugm-3
07-01-2017,20:00,3.67112,R,ugm-3,23.07814,R,ugm-3,28.70710,R,ugm-3,31.98109,R,ugm-3,1.60319,R,ugm-3
07-01-2017,21:00,3.78649,R,ugm-3,27.11686,R,ugm-3,32.92273,R,ugm-3,27.98969,R,ugm-3,1.60319,R,ugm-3
07-01-2017,22:00,7.19755,R,ugm-3,31.07095,R,ugm-3,42.10703,R,ugm-3,26.99184,R,ugm-3,1.53867,R,ugm-3
07-01-2017,23:00,1.67637,R,ugm-3,12.02723,R,ugm-3,14.59763,R,ugm-3,52.83616,R,ugm-3,1.28189,R,ugm-3
07-01-2017,24:00,0.75181,R,ugm-3,8.60864,R,ugm-3,9.76140,R,ugm-3,56.32863,R,ugm-3,1.09030,R,ugm-3
08-01-2017,01:00,0.61700,R,ugm-3,6.55924,R,ugm-3,7.50529,R,ugm-3,57.34311,R,ugm-3,1.36948,R,ugm-3
08-01-2017,02:00,0.73217,R,ugm-3,8.62792,R,ugm-3,9.75056,R,ugm-3,54.74870,R,ugm-3,1.36859,R,ugm-3
08-01-2017,03:00,0.72281,R,ugm-3,9.48504,R,ugm-3,10.59334,R,ugm-3,50.49121,R,ugm-3,1.15550,R,ugm-3
08-01-2017,04:00,0.75150,R,ugm-3,7.49078,R,ugm-3,8.64307,R,ugm-3,55.08132,R,ugm-3,1.28322,R,ugm-3
08-01-2017,05:00,1.53231,R,ugm-3,10.10469,R,ugm-3,12.45420,R,ugm-3,52.73637,R,ugm-3,1.28388,R,ugm-3
08-01-2017,06:00,1.21394,R,ugm-3,11.78961,R,ugm-3,13.65095,R,ugm-3,47.89680,R,ugm-3,1.28322,R,ugm-3
08-01-2017,07:00,1.12725,R,ugm-3,11.92300,R,ugm-3,13.65143,R,ugm-3,44.75357,R,ugm-3,1.22002,R,ugm-3
08-01-2017,08:00,4.45161,R,ugm-3,30.13909,R,ugm-3,36.96480,R,ugm-3,28.23916,R,ugm-3,1.66905,R,ugm-3
08-01-2017,09:00,4.56699,R,ugm-3,32.08936,R,ugm-3,39.09198,R,ugm-3,23.69894,R,ugm-3,1.28388,R,ugm-3
08-01-2017,10:00,5.60786,R,ugm-3,37.09772,R,ugm-3,45.69632,R,ugm-3,21.35399,R,ugm-3,1.47613,R,ugm-3
08-01-2017,11:00,34.74510,R,ugm-3,60.67693,R,ugm-3,113.95201,R,ugm-3,5.73764,R,ugm-3,2.18327,R,ugm-3
08-01-2017,12:00,59.80710,R,ugm-3,52.96478,R,ugm-3,144.66772,R,ugm-3,3.04344,R,ugm-3,3.01746,R,ugm-3
08-01-2017,13:00,55.32649,R,ugm-3,51.10343,R,ugm-3,135.93620,R,ugm-3,3.14323,R,ugm-3,3.40196,R,ugm-3
08-01-2017,14:00,9.19198,R,ugm-3,24.02291,R,ugm-3,38.11708,R,ugm-3,31.43228,R,ugm-3,2.76068,R,ugm-3
08-01-2017,15:00,6.41705,R,ugm-3,27.87851,R,ugm-3,37.71785,R,ugm-3,28.83787,R,ugm-3,2.95360,R,ugm-3
08-01-2017,16:00,5.92592,R,ugm-3,33.59593,R,ugm-3,42.68222,R,ugm-3,24.09808,R,ugm-3,2.63163,R,ugm-3
08-01-2017,17:00,8.35379,R,ugm-3,42.59377,R,ugm-3,55.40273,R,ugm-3,16.86367,R,ugm-3,2.56777,R,ugm-3
08-01-2017,18:00,8.46917,R,ugm-3,44.58898,R,ugm-3,57.57486,R,ugm-3,17.86152,R,ugm-3,2.37485,R,ugm-3
08-01-2017,19:00,6.82180,R,ugm-3,38.91459,R,ugm-3,49.37453,R,ugm-3,20.30625,R,ugm-3,2.63163,R,ugm-3
08-01-2017,20:00,8.87423,R,ugm-3,46.44937,R,ugm-3,60.05633,R,ugm-3,14.76818,R,ugm-3,3.46649,R,ugm-3
08-01-2017,21:00,6.38836,R,ugm-3,39.71211,R,ugm-3,49.50745,R,ugm-3,17.96130,R,ugm-3,5.64909,R,ugm-3
08-01-2017,22:00,5.75255,R,ugm-3,38.55983,R,ugm-3,47.38028,R,ugm-3,17.61205,R,ugm-3,6.03426,R,ugm-3
08-01-2017,23:00,2.89093,R,ugm-3,27.78910,R,ugm-3,32.22180,R,ugm-3,24.49722,R,ugm-3,6.03492,R,ugm-3
08-01-2017,24:00,2.77524,R,ugm-3,25.75038,R,ugm-3,30.00569,R,ugm-3,24.99614,R,ugm-3,5.65042,R,ugm-3
09-01-2017,01:00,1.46267,R,ugm-3,16.60943,R,ugm-3,18.85215,R,ugm-3,35.65651,R,ugm-3,5.13554,R,ugm-3
09-01-2017,02:00,1.27058,R,ugm-3,12.05704,R,ugm-3,14.00524,R,ugm-3,39.38181,R,ugm-3,3.50884,R,ugm-3
09-01-2017,03:00,0.86625,R,ugm-3,6.29499,R,ugm-3,7.62323,R,ugm-3,48.64519,R,ugm-3,2.69616,R,ugm-3
09-01-2017,04:00,1.01094,R,ugm-3,5.63040,R,ugm-3,7.18048,R,ugm-3,50.29164,R,ugm-3,2.76002,R,ugm-3
09-01-2017,05:00,3.92681,R,ugm-3,11.30909,R,ugm-3,17.33012,R,ugm-3,47.44777,R,ugm-3,2.24647,R,ugm-3
09-01-2017,06:00,1.21269,R,ugm-3,7.18239,R,ugm-3,9.04182,R,ugm-3,53.98369,R,ugm-3,2.69616,R,ugm-3
09-01-2017,07:00,1.99256,R,ugm-3,8.20271,R,ugm-3,11.25793,R,ugm-3,55.33078,R,ugm-3,2.24647,R,ugm-3
09-01-2017,08:00,2.22362,R,ugm-3,9.66530,R,ugm-3,13.07481,R,ugm-3,54.93164,R,ugm-3,2.24580,R,ugm-3
09-01-2017,09:00,2.77212,R,ugm-3,13.07959,R,ugm-3,17.33012,R,ugm-3,54.88175,R,ugm-3,2.11808,R,ugm-3
09-01-2017,10:00,3.92681,R,ugm-3,14.81088,R,ugm-3,20.83191,R,ugm-3,52.03788,R,ugm-3,1.60519,R,ugm-3
09-01-2017,11:00,2.36769,R,ugm-3,12.99018,R,ugm-3,16.62058,R,ugm-3,51.93809,R,ugm-3,1.60519,R,ugm-3
09-01-2017,12:00,3.89812,R,ugm-3,16.05113,R,ugm-3,22.02818,R,ugm-3,48.49551,R,ugm-3,1.54066,R,ugm-3
09-01-2017,13:00,2.85850,R,ugm-3,15.16326,R,ugm-3,19.54623,R,ugm-3,52.13766,R,ugm-3,1.54066,R,ugm-3
09-01-2017,14:00,1.24138,R,ugm-3,11.79200,R,ugm-3,13.69541,R,ugm-3,58.07487,R,ugm-3,1.60452,R,ugm-3
09-01-2017,15:00,1.93456,R,ugm-3,17.86514,R,ugm-3,20.83143,R,ugm-3,50.19186,R,ugm-3,1.60519,R,ugm-3
09-01-2017,16:00,2.10794,R,ugm-3,20.48048,R,ugm-3,23.71261,R,ugm-3,47.29809,R,ugm-3,1.60452,R,ugm-3
09-01-2017,17:00,1.38606,R,ugm-3,18.52830,R,ugm-3,20.65357,R,ugm-3,49.24390,R,ugm-3,1.28455,R,ugm-3
09-01-2017,18:00,1.58813,R,ugm-3,17.33251,R,ugm-3,19.76760,R,ugm-3,49.34368,R,ugm-3,1.22002,R,ugm-3
09-01-2017,19:00,1.76119,R,ugm-3,19.14986,R,ugm-3,21.85031,R,ugm-3,46.44992,R,ugm-3,1.28322,R,ugm-3
09-01-2017,20:00,1.01063,R,ugm-3,15.02747,R,ugm-3,16.57707,R,ugm-3,49.14411,R,ugm-3,0.96258,R,ugm-3
09-01-2017,21:00,1.01063,R,ugm-3,14.62823,R,ugm-3,16.17784,R,ugm-3,46.69938,R,ugm-3,1.41161,R,ugm-3
09-01-2017,22:00,1.03931,R,ugm-3,10.19602,R,ugm-3,11.78961,R,ugm-3,51.13981,R,ugm-3,1.15550,R,ugm-3
09-01-2017,23:00,0.86594,R,ugm-3,9.44249,R,ugm-3,10.77024,R,ugm-3,51.18971,R,ugm-3,1.21936,R,ugm-3
09-01-2017,24:00,0.40413,R,ugm-3,6.16160,R,ugm-3,6.78125,R,ugm-3,55.03143,R,ugm-3,1.15616,R,ugm-3
10-01-2017,01:00,0.34633,R,ugm-3,6.14678,R,ugm-3,6.67781,R,ugm-3,54.41609,R,ugm-3,0.77078,R,ugm-3
10-01-2017,02:00,0.46150,R,ugm-3,4.96549,R,ugm-3,5.67311,R,ugm-3,55.48046,R,ugm-3,0.94107,R,ugm-3
10-01-2017,03:00,0.43313,R,ugm-3,3.59120,R,ugm-3,4.25531,R,ugm-3,57.27659,R,ugm-3,0.83486,R,ugm-3
10-01-2017,04:00,0.40413,R,ugm-3,3.01506,R,ugm-3,3.63471,R,ugm-3,58.22455,R,ugm-3,1.02777,R,ugm-3
10-01-2017,05:00,0.37544,R,ugm-3,2.83719,R,ugm-3,3.41286,R,ugm-3,60.27014,R,ugm-3,0.70713,R,ugm-3
10-01-2017,06:00,0.60619,R,ugm-3,4.30073,R,ugm-3,5.23021,R,ugm-3,59.47186,R,ugm-3,1.21869,R,ugm-3
10-01-2017,07:00,0.89525,R,ugm-3,8.24527,R,ugm-3,9.61796,R,ugm-3,55.77982,R,ugm-3,0.83552,R,ugm-3
10-01-2017,08:00,1.21269,R,ugm-3,10.24000,R,ugm-3,12.09943,R,ugm-3,52.53680,R,ugm-3,0.89938,R,ugm-3
10-01-2017,09:00,1.58813,R,ugm-3,12.67892,R,ugm-3,15.11401,R,ugm-3,51.93809,R,ugm-3,1.09097,R,ugm-3
10-01-2017,10:00,2.10825,R,ugm-3,12.32415,R,ugm-3,15.55675,R,ugm-3,52.28734,R,ugm-3,1.15616,R,ugm-3
10-01-2017,11:00,,,,,,,,,,,,,,,
10-01-2017,12:00,,,,,,,,,,,,,,,
10-01-2017,13:00,1.84819,R,ugm-3,10.77311,R,ugm-3,13.60696,R,ugm-3,48.64519,R,ugm-3,1.28388,R,ugm-3
10-01-2017,14:00,1.32838,R,ugm-3,10.81662,R,ugm-3,12.85343,R,ugm-3,53.23530,R,ugm-3,1.15483,R,ugm-3
10-01-2017,15:00,1.64581,R,ugm-3,13.69828,R,ugm-3,16.22183,R,ugm-3,49.09422,R,ugm-3,1.02711,R,ugm-3
10-01-2017,16:00,3.26294,R,ugm-3,21.63516,R,ugm-3,26.63826,R,ugm-3,41.41078,R,ugm-3,0.96325,R,ugm-3
10-01-2017,17:00,2.57006,R,ugm-3,21.19002,R,ugm-3,25.13073,R,ugm-3,40.31314,R,ugm-3,0.96258,R,ugm-3
10-01-2017,18:00,2.19431,R,ugm-3,17.82115,R,ugm-3,21.18572,R,ugm-3,45.05293,R,ugm-3,1.02711,R,ugm-3
10-01-2017,19:00,0.98194,R,ugm-3,14.62776,R,ugm-3,16.13337,R,ugm-3,50.69078,R,ugm-3,1.41227,R,ugm-3
10-01-2017,20:00,0.75119,R,ugm-3,11.08150,R,ugm-3,12.23331,R,ugm-3,55.18111,R,ugm-3,1.21869,R,ugm-3
10-01-2017,21:00,0.57750,R,ugm-3,9.26367,R,ugm-3,10.14916,R,ugm-3,58.77337,R,ugm-3,1.34708,R,ugm-3
10-01-2017,22:00,0.57750,R,ugm-3,7.66913,R,ugm-3,8.55461,R,ugm-3,59.72132,R,ugm-3,1.73358,R,ugm-3
10-01-2017,23:00,0.49050,R,ugm-3,6.33994,R,ugm-3,7.09203,R,ugm-3,59.67143,R,ugm-3,1.54133,R,ugm-3